Change the Weather History Date:

Tuesday, February 5, 2013

  Actual Average Record
Temperature  
Mean Temperature 6 °F -  
Max Temperature 19 °F 26 °F 46 °F (2005)
Min Temperature -7 °F 1 °F -20 °F (2000)
Degree Days  
Heating Degree Days 59    
Moisture  
Dew Point -7 °F    
Average Humidity 53    
Maximum Humidity 80    
Minimum Humidity 27    
Precipitation  
Precipitation 0.00 in - - ()
Sea Level Pressure  
Sea Level Pressure 29.95 in    
Wind  
Wind Speed 3 mph (WNW)    
Max Wind Speed 8 mph    
Max Gust Speed -    
Visibility 10 miles    
Events      
Averages and records for this station are not official NWS values.
T = Trace of Precipitation, MM = Missing Value Source: NWS Daily Summary

Daily Weather History Graph

Daily Weather History Graph

Search for Another Location

Airport or City:

Trip Planner

Search our weather history database for the weather conditions in past years. The results will help you decide how hot, cold, wet, or windy it might be!

Date:

Astronomy

Feb. 05, 2013 Rise Set
Actual Time 6:58 AM EST 4:59 PM EST
Civil Twilight 6:27 AM EST 5:30 PM EST
Nautical Twilight 5:53 AM EST 6:05 PM EST
Astronomical Twilight 5:19 AM EST 6:39 PM EST
Moon 2:41 AM EST (2/5) 12:09 PM EST (2/5)
Length of Visible Light 11h 02m
Length of Day
10h 01m
Waning Crescent, 27% of the Moon is Illuminated
Feb 5
Waning Crescent
Feb 10
New
Feb 17
First Quarter
Feb 25
Full
Mar 4
Last Quarter

Hourly Weather History & Observations

Time (EST) Temp. Windchill Dew Point Humidity Pressure Visibility Wind Dir Wind Speed Gust Speed Precip Events Conditions
12:52 AM 5.0 °F -5.6 °F -11.9 °F 46% 29.87 in 10.0 mi WNW 5.8 mph - N/A   Clear
1:52 AM 3.9 °F - -11.9 °F 48% 29.88 in 10.0 mi Calm Calm - N/A   Clear
2:52 AM 3.0 °F -9.3 °F -11.9 °F 50% 29.89 in 10.0 mi West 6.9 mph - N/A   Clear
3:52 AM 3.0 °F -8.0 °F -11.9 °F 50% 29.90 in 10.0 mi Variable 5.8 mph - N/A   Clear
4:52 AM 1.9 °F - -11.0 °F 55% 29.92 in 10.0 mi Calm Calm - N/A   Clear
5:52 AM -2.9 °F - -9.9 °F 72% 29.94 in 10.0 mi Calm Calm - N/A   Clear
6:52 AM -7.1 °F - -13.0 °F 75% 29.96 in 10.0 mi Calm Calm - N/A   Clear
7:52 AM -2.9 °F - -9.0 °F 75% 29.98 in 10.0 mi Calm Calm - N/A   Clear
8:52 AM 3.0 °F - -9.0 °F 57% 30.01 in 10.0 mi Calm Calm - N/A   Clear
9:52 AM 8.1 °F -0.5 °F -9.9 °F 44% 30.01 in 10.0 mi Variable 4.6 mph - N/A   Clear
10:52 AM 10.9 °F -0.8 °F -11.0 °F 37% 30.01 in 10.0 mi WNW 8.1 mph - N/A   Clear
11:52 AM 12.9 °F 5.2 °F -9.9 °F 35% 29.99 in 10.0 mi Variable 4.6 mph - N/A   Clear
12:52 PM 15.1 °F 6.4 °F -11.0 °F 31% 29.97 in 10.0 mi Variable 5.8 mph - N/A   Clear
1:52 PM 17.1 °F 10.0 °F -9.9 °F 30% 29.96 in 10.0 mi Variable 4.6 mph - N/A   Clear
2:52 PM 18.0 °F - -8.0 °F 31% 29.96 in 10.0 mi Calm Calm - N/A   Clear
3:52 PM 19.0 °F 13.9 °F -9.9 °F 27% 29.95 in 10.0 mi Variable 3.5 mph - N/A   Clear
4:52 PM 16.0 °F - -8.0 °F 34% 29.96 in 10.0 mi Calm Calm - N/A   Clear
6:52 PM 9.0 °F - 1.0 °F 70% 29.97 in 10.0 mi Calm Calm - N/A   Mostly Cloudy
7:52 PM 9.0 °F - 1.0 °F 70% 29.96 in 10.0 mi Calm Calm - N/A   Overcast
8:52 PM 10.0 °F - 1.9 °F 70% 29.96 in 10.0 mi Calm Calm - N/A   Mostly Cloudy
9:52 PM 10.9 °F - 1.0 °F 64% 29.96 in 10.0 mi Calm Calm - N/A   Overcast
10:52 PM 6.1 °F - 1.0 °F 80% 29.95 in 10.0 mi Calm Calm - N/A   Clear
11:52 PM 7.0 °F - 1.0 °F 77% 29.94 in 10.0 mi Calm Calm - N/A   Mostly Cloudy